Location: Kawakawa
(35.3830°S, 174.0670°E)
Time: 02:29:29
(UTC+13:00)

Explorer 7 - Pass Details

Date: 15 December 2019
Orbit: 485 x 679 km, 50.3° (Epoch: 16 January)

Event Time Altitude Azimuth Distance (km) Brightness Sun altitude
Rises 01:36:06 0° 357° (N) 2,712 - -31.3°
Reaches altitude 10° 01:39:32 10° 27° (NNE) 1,782 - -31.2°
Maximum altitude 01:41:15 12° 52° (NE) 1,616 - -31.2°
Drops below altitude 10° 01:42:56 10° 77° (ENE) 1,751 - -31.1°
Exits shadow 01:45:39 - 104° (ESE) 2,426 10.4 -31.0°
Sets 01:46:14 0° 107° (ESE) 2,612 10.6 -31.0°
